This is the latest recevied weather packets stored in our database for station/object OK1LPD-6. If no packets are shown the sender has not sent any weather packets the latest 10 day(s).
| Time | Temp. | Humidity | Pressure | Rain* | Wind** | Luminosity | Snow |
|---|---|---|---|---|---|---|---|
| 1787763400 | 22.22° C | 58% | 1018.8 hPa | 0 mm | - | - | - |
| 1787762817 | 22.22° C | 54% | 1018.6 hPa | 0 mm | - | - | - |
| 1787762200 | 22.78° C | 53% | 1018.8 hPa | 0 mm | - | - | - |
| 1787761601 | 23.33° C | 51% | 1018.8 hPa | 0 mm | - | - | - |
| 1787761021 | 23.89° C | 51% | 1018.9 hPa | 0 mm | - | - | - |
| 1787760401 | 23.89° C | 51% | 1018.9 hPa | 0 mm | - | - | - |
| 1787759801 | 23.33° C | 52% | 1018.8 hPa | 0 mm | - | - | - |
| 1787759218 | 23.33° C | 52% | 1018.7 hPa | 0 mm | - | - | - |
| 1787758601 | 23.33° C | 52% | 1018.5 hPa | 0 mm | - | - | - |
| 1787758001 | 23.89° C | 51% | 1018.6 hPa | 0 mm | - | - | - |
| 1787757424 | 24.44° C | 50% | 1018.6 hPa | 0 mm | - | - | - |
| 1787756802 | 24.44° C | 50% | 1018.5 hPa | 0 mm | - | - | - |
| 1787756202 | 24.44° C | 51% | 1018.5 hPa | 0 mm | - | - | - |
| 1787755620 | 24.44° C | 50% | 1018.6 hPa | 0 mm | - | - | - |
| 1787755002 | 25° C | 50% | 1018.5 hPa | 0 mm | - | - | - |
| 1787754402 | 25° C | 50% | 1018.5 hPa | 0 mm | - | - | - |
| 1787753822 | 25° C | 50% | 1018.5 hPa | 0 mm | - | - | - |
| 1787753202 | 25.56° C | 47% | 1018.5 hPa | 0 mm | - | - | - |
| 1787752602 | 25.56° C | 49% | 1018.5 hPa | 0 mm | - | - | - |
| 1787752019 | 25° C | 49% | 1018.6 hPa | 0 mm | - | - | - |
| 1787751402 | 25.56° C | 50% | 1018.6 hPa | 0 mm | - | - | - |
| 1787750802 | 24.44° C | 51% | 1018.7 hPa | 0 mm | - | - | - |
| 1787750222 | 23.89° C | 52% | 1018.7 hPa | 0 mm | - | - | - |
| 1787749603 | 23.89° C | 52% | 1018.8 hPa | 0 mm | - | - | - |
| 1787749003 | 23.89° C | 52% | 1018.7 hPa | 0 mm | - | - | - |
* Rain latest hour (hover to see other rain measurements)
** Current wind speed in m/s (hover to see current wind gust speed)